Location: Newark
(34.3481°N, 134.0494°E)
Time: 11:00:29
(UTC+00:00)

Vanguard 3 - Pass Details

Date: 19 January 2020
Orbit: 508 x 3263 km, 33.3° (Epoch: 25 February)

Event Time Altitude Azimuth Distance (km) Brightness Sun altitude
Rises 12:54:09 0° 269° (W) 6,859 12.4 -56.1°
Reaches altitude 10° 12:59:14 10° 269° (W) 5,542 11.7 -57.1°
Enters shadow 13:07:58 37° 269° (W) 3,167 10.1 -58.8°
